User: anonymous   Login
Location: Unspecified
(0.0000°N, 0.0000°E)
Time: 21:58:03
(UTC+00:00)
Language:

Kitsat-3 - Orbit

View from above orbital plane
View from above orbital plane
View from above satellite
View from above satellite

Ground track
Ground track

The orbit data is extracted from the following two-line orbital elements,

1 25756U 99029A   17082.92561788 +.00000028 +00000-0 +17743-4 0  9994
2 25756 098.4128 002.1840 0014510 138.7083 221.5213 14.53656633945012
Epoch (UTC): 23 March 2017 22:12:53
Eccentricity: 0.0014510
inclination: 98.4128°
perigee height: 703 km
apogee height: 724 km
right ascension of ascending node: 2.1840°
argument of perigee: 138.7083°
revolutions per day: 14.53656633
mean anomaly at epoch: 221.5213°
orbit number at epoch: 94501

The dashed part of the orbit path shows where the satellite is in the earth's shadow,  

DLR